Location: Winter Haven
(28.0220°N, 81.7330°W)
Time: 21:00:34
(UTC-04:00)

Amateur Radio Satellites - All Passes

Search period start: 24 August 2016 20:30
Search period end: 25 August 2016 20:30
Location: Winter Haven, 28.0220°N, 81.7330°W

Satellite Date Start Highest point End Downlink Frequencies (MHz)
Time Altitude Azimuth
SRMSAT 24 Aug 20:38:25 20:42:29 19° 197° (SSW) 20:46:34 437.500
Cosmos 2491 24 Aug 20:38:53 20:46:16 31° 283° (WNW) 20:53:45 435.465 / 435.565
SEEDS 24 Aug 20:49:41 20:53:46 59° 76° (ENE) 20:57:52 437.485
AIST 1 24 Aug 20:51:07 20:53:28 14° 77° (ENE) 20:55:48
CINEMA 3 24 Aug 20:55:35 21:00:29 58° 260° (W) 21:05:27 145.822/145.860
CANX-2 24 Aug 21:04:04 21:08:08 47° 261° (W) 21:12:11 2200.000
STRAND 1 24 Aug 21:08:11 21:13:06 50° 286° (WNW) 21:18:00 437.568
CUTE 1.7 + AOD 2 24 Aug 21:10:55 21:14:57 45° 260° (W) 21:18:59 437.475
BEESAT 2 24 Aug 21:16:58 21:20:58 76° 64° (ENE) 21:24:56 435.950
AAUSAT CUBESAT 2 24 Aug 21:30:52 21:34:57 78° 258° (WSW) 21:39:04 437.432
COMPASS 1 24 Aug 21:35:34 21:39:33 49° 260° (W) 21:43:33 437.405
CUBEBUG 2 24 Aug 21:37:05 21:41:49 73° 259° (W) 21:46:31 437.445
Cosmos 2504 24 Aug 21:38:38 21:43:04 18° 275° (W) 21:47:30 435.465 / 435.565
UWE-3 24 Aug 21:42:10 21:46:49 83° 77° (ENE) 21:51:23 435.000/436.395/437.385
Oscar 11 24 Aug 21:42:53 21:47:02 48° 76° (ENE) 21:51:11 145.826/435.025
BEESAT 3 24 Aug 21:43:00 21:46:02 21° 250° (WSW) 21:49:03 437.485
HO-68 24 Aug 21:44:16 21:50:34 33° 261° (W) 21:56:53 435.675
FUNcube-1 24 Aug 21:45:23 21:49:44 49° 76° (ENE) 21:54:01 145.935
DELFI C3 24 Aug 22:04:21 22:07:49 31° 74° (ENE) 22:11:17 145.870
ZACube-1 24 Aug 22:04:41 22:09:14 86° 254° (WSW) 22:13:43 437.345
PCSat 24 Aug 22:15:59 22:20:22 24° 59° (ENE) 22:24:44 145.827
PRISM 24 Aug 22:25:16 22:29:22 57° 285° (WNW) 22:33:27 437.425
AIST 1 24 Aug 22:27:11 22:31:04 31° 269° (W) 22:34:57
AUBIESAT-1 24 Aug 22:29:19 22:30:41 11° 63° (ENE) 22:32:02 437.475
M-CUBED/EXP-1 PRIME 24 Aug 22:30:36 22:33:12 15° 64° (ENE) 22:35:52 437.505
ANTELSAT 24 Aug 22:50:21 22:53:18 18° 96° (E) 22:56:13 437.575/2403.000
AIST 2 24 Aug 22:59:40 23:03:29 33° 60° (ENE) 23:07:16 435.215
ESTCUBE 1 24 Aug 23:09:47 23:11:46 13° 69° (ENE) 23:13:46 437.505/2401.250
HUMSAT D 24 Aug 23:21:08 23:25:15 53° 260° (W) 23:29:20 437.325/437.525
TIGRISAT 24 Aug 23:21:19 23:25:23 43° 100° (E) 23:29:24 435.000
GONETS M04 24 Aug 23:25:46 23:33:01 28° 76° (ENE) 23:40:11
AISAT 24 Aug 23:32:07 23:34:03 13° 68° (ENE) 23:35:59 437.250
DELFI C3 24 Aug 23:41:08 23:42:40 12° 265° (W) 23:44:12 145.870
UNISAT 6 24 Aug 23:48:39 23:52:55 74° 284° (WNW) 23:57:09 437.425
50 SAT 24 Aug 23:52:13 23:54:35 17° 72° (ENE) 23:56:58 437.505
PCSat 24 Aug 23:58:56 00:03:43 32° 252° (WSW) 00:08:28 145.827
UKube-1 24 Aug 23:59:29 00:01:14 12° 68° (ENE) 00:03:00 .
AUBIESAT-1 25 Aug 00:00:06 00:04:31 57° 255° (WSW) 00:09:06 437.475
M-CUBED/EXP-1 PRIME 25 Aug 00:02:58 00:07:15 42° 257° (WSW) 00:11:43 437.505
QB50P2 25 Aug 00:07:18 00:10:23 20° 97° (E) 00:13:27 145.880/145.840
POLYITAN 1 25 Aug 00:09:50 00:12:55 20° 96° (E) 00:16:00 437.675
DUCHIFAT 1 25 Aug 00:09:51 00:12:34 17° 96° (E) 00:15:16 145.980
VELOX 1 25 Aug 00:17:19 00:21:29 43° 75° (ENE) 00:25:42 145.980
SO-50 25 Aug 00:18:37 00:23:15 46° 113° (ESE) 00:27:53 436.795
NANOSAT C BR1 25 Aug 00:21:16 00:24:48 26° 98° (E) 00:28:17 145.865
ANTELSAT 25 Aug 00:26:26 00:29:55 25° 288° (WNW) 00:33:23 437.575/2403.000
CUBEBUG 1 25 Aug 00:27:56 00:32:17 76° 76° (ENE) 00:36:41 437.445
O/OREOS (USA 219) 25 Aug 00:31:23 00:33:40 13° 63° (ENE) 00:35:56 437.305
JAS-2 25 Aug 00:32:07 00:37:48 25° 98° (E) 00:43:49 435.910
AIST 2 25 Aug 00:39:24 00:41:37 14° 252° (WSW) 00:43:49 435.215
ESTCUBE 1 25 Aug 00:43:57 00:48:09 41° 261° (W) 00:52:23 437.505/2401.250
DX 1 25 Aug 00:45:44 00:50:02 66° 77° (ENE) 00:54:23 434.975-435.025
Cosmos 2499 25 Aug 00:50:27 00:57:31 81° 85° (E) 01:04:43 435.465 / 435.565
CUSAT 1 25 Aug 00:53:49 00:56:12 33° 281° (W) 00:58:50 437.405
TIGRISAT 25 Aug 01:00:36 01:01:37 11° 292° (WNW) 01:02:38 435.000
SPROUT 25 Aug 01:01:04 01:05:20 71° 76° (ENE) 01:09:38 437.525
QB50P1 25 Aug 01:02:44 01:06:57 80° 283° (WNW) 01:11:07 145.935-145.965
AISAT 25 Aug 01:05:55 01:10:04 41° 260° (W) 01:14:18 437.250
RS-15 25 Aug 01:05:59 01:15:36 34° 104° (ESE) 01:25:34 29.354- 29.394
POPSAT HIP 1 25 Aug 01:12:28 01:16:38 60° 283° (WNW) 01:20:44 437.405
BUGSAT 1 25 Aug 01:17:42 01:21:42 48° 100° (E) 01:25:38 437.445
DANDE 25 Aug 01:19:25 01:22:12 90° 308° (NW) 01:24:46 436.750
GONETS M04 25 Aug 01:21:33 01:29:57 50° 270° (W) 01:38:19
50 SAT 25 Aug 01:25:31 01:27:59 18° 263° (W) 01:30:28 437.505
TISAT 1 25 Aug 01:32:41 01:36:23 30° 73° (ENE) 01:40:06 437.305
UKube-1 25 Aug 01:32:49 01:36:52 40° 261° (W) 01:40:56 .
QB50P2 25 Aug 01:42:45 01:46:03 23° 288° (WNW) 01:49:20 145.880/145.840
DUCHIFAT 1 25 Aug 01:44:41 01:48:10 26° 287° (WNW) 01:51:38 145.980
POLYITAN 1 25 Aug 01:45:19 01:48:35 22° 288° (WNW) 01:51:50 437.675
VELOX 1 25 Aug 01:56:46 01:58:04 11° 266° (W) 01:59:22 145.980
NANOSAT C BR1 25 Aug 01:57:30 02:00:16 17° 289° (WNW) 02:03:01 145.865
SO-50 25 Aug 02:00:54 02:03:54 16° 306° (NW) 02:06:53 436.795
O/OREOS (USA 219) 25 Aug 02:08:52 02:13:11 41° 256° (WSW) 02:17:30 437.305
ITUPSAT 1 25 Aug 02:11:17 02:13:49 14° 68° (ENE) 02:16:21 437.325
Gurwin Techsat 1B 25 Aug 02:12:50 02:14:57 12° 94° (E) 02:17:04 435.225
JAS-2 25 Aug 02:16:09 02:22:43 48° 287° (WNW) 02:29:56 435.910
PHONESAT 2.4 25 Aug 02:27:49 02:30:43 46° 145° (SE) 02:33:36 2401.200-2431.200
SWISSCUBE 25 Aug 02:44:01 02:48:26 40° 74° (ENE) 02:52:52 437.505
Cosmos 2499 25 Aug 02:48:50 02:49:40 10° 277° (W) 02:50:30 435.465 / 435.565
BEESAT 25 Aug 03:01:15 03:05:55 57° 75° (ENE) 03:10:35 436.000
Oscar 19 25 Aug 03:04:52 03:10:02 68° 285° (WNW) 03:15:11 437.125/150
TISAT 1 25 Aug 03:09:30 03:12:00 15° 264° (W) 03:14:29 437.305
RS-15 25 Aug 03:16:13 03:27:17 56° 301° (WNW) 03:39:03 29.354- 29.394
MOZHAYETS 4 25 Aug 03:44:12 03:47:24 19° 71° (ENE) 03:50:37
ITUPSAT 1 25 Aug 03:46:45 03:51:15 42° 260° (W) 03:55:45 437.325
Gurwin Techsat 1B 25 Aug 03:49:55 03:55:06 56° 286° (WNW) 04:00:16 435.225
KKS-1 25 Aug 04:00:52 04:04:25 23° 71° (ENE) 04:07:58 437.445
PHONESAT 2.4 25 Aug 04:04:51 04:07:10 20° 338° (NNW) 04:09:30 2401.200-2431.200
ITAMSAT 1 25 Aug 04:12:02 04:17:11 66° 102° (ESE) 04:22:19 435.822/435.867
AO-7 25 Aug 04:14:21 04:21:35 33° 100° (E) 04:28:46 29.400- 29.500
SWISSCUBE 25 Aug 04:23:47 04:26:17 14° 265° (W) 04:28:48 437.505
STARS 25 Aug 04:44:48 04:48:50 35° 73° (ENE) 04:52:52 437.465
CUBESAT XI-V 25 Aug 04:56:55 04:59:03 13° 69° (ENE) 05:01:11 437.345
Cosmos 2491 25 Aug 05:03:07 05:07:17 14° 70° (ENE) 05:11:25 435.465 / 435.565
MOZHAYETS 4 25 Aug 05:20:24 05:24:19 28° 262° (W) 05:28:15
HORYU 2 25 Aug 05:22:35 05:24:20 12° 95° (E) 05:26:07 437.375
KKS-1 25 Aug 05:37:21 05:40:49 22° 263° (W) 05:44:18 437.445
RS-15 25 Aug 05:38:16 05:43:13 13° 327° (NNW) 05:48:17 29.354- 29.394
ITAMSAT 1 25 Aug 05:54:50 05:56:02 11° 294° (WNW) 05:57:13 435.822/435.867
AO-85 25 Aug 05:56:20 06:01:26 44° 113° (ESE) 06:06:24 145.980
BRITE-PL 25 Aug 06:05:12 06:09:12 20° 94° (E) 06:13:07 437.365/2234.400
AO-7 25 Aug 06:06:37 06:14:17 43° 293° (WNW) 06:21:55 29.400- 29.500
YUBILEINY 25 Aug 06:08:24 06:14:48 23° 84° (E) 06:21:11 435.215
STARS 25 Aug 06:22:53 06:25:12 14° 265° (W) 06:27:32 437.465
CUBESAT XI-V 25 Aug 06:31:40 06:35:59 42° 261° (W) 06:40:21 437.345
CUTE-I 25 Aug 06:32:12 06:34:43 13° 95° (E) 06:37:14 437.470
NOAA 15 25 Aug 06:41:57 06:46:12 24° 97° (E) 06:50:26 137.62
NOAA 18 25 Aug 06:45:54 06:49:24 17° 96° (E) 06:52:54 137.9125
Cosmos 2491 25 Aug 06:56:07 07:04:58 86° 266° (W) 07:13:49 435.465 / 435.565
HORYU 2 25 Aug 06:56:52 07:00:58 39° 286° (WNW) 07:05:04 437.375
LilacSat-2 25 Aug 07:16:43 07:20:17 41° 99° (E) 07:23:50 437.200
GOMX 1 25 Aug 07:33:41 07:39:05 71° 101° (E) 07:44:09 467.674
AO-85 25 Aug 07:38:14 07:42:01 19° 304° (NW) 07:45:43 145.980
BRITE-PL 25 Aug 07:42:22 07:47:42 42° 287° (WNW) 07:52:54 437.365/2234.400
DOVE 4 25 Aug 07:55:41 08:00:32 49° 99° (E) 08:05:05 437.250
Cubesat XI-IV 25 Aug 07:56:50 08:02:07 72° 285° (WNW) 08:07:24 437.490
YUBILEINY 25 Aug 08:02:14 08:10:52 58° 278° (W) 08:19:32 435.215
CUTE-I 25 Aug 08:09:48 08:14:56 52° 286° (WNW) 08:20:04 437.470
Cosmos 2504 25 Aug 08:11:38 08:20:08 60° 92° (E) 08:28:09 435.465 / 435.565
STRAND 1 25 Aug 08:16:48 08:21:53 73° 258° (WSW) 08:26:59 437.568
NOAA 15 25 Aug 08:21:18 08:25:52 30° 289° (WNW) 08:30:25 137.62
NOAA 18 25 Aug 08:25:00 08:30:09 43° 288° (WNW) 08:35:15 137.9125
SEEDS 25 Aug 08:41:26 08:44:12 17° 96° (E) 08:46:57 437.485
CANX-2 25 Aug 08:55:46 08:59:51 47° 100° (E) 09:03:57 2200.000
PHONESAT 2.4 25 Aug 08:55:49 08:58:35 33° 27° (NNE) 09:01:21 2401.200-2431.200
CINEMA 3 25 Aug 08:57:53 09:02:19 60° 100° (E) 09:06:32 145.822/145.860
Cosmos 2491 25 Aug 08:58:11 09:00:28 11° 280° (W) 09:02:45 435.465 / 435.565
CUTE 1.7 + AOD 2 25 Aug 09:02:27 09:06:33 49° 99° (E) 09:10:40 437.475
PRISM 25 Aug 09:07:50 09:11:33 36° 74° (ENE) 09:15:18 437.425
AIST 1 25 Aug 09:14:33 09:15:41 11° 87° (E) 09:16:49
GOMX 1 25 Aug 09:15:13 09:16:21 11° 295° (WNW) 09:17:29 467.674
HO-68 25 Aug 09:18:30 09:25:40 73° 104° (ESE) 09:32:47 435.675
AAUSAT CUBESAT 2 25 Aug 09:20:20 09:23:52 27° 98° (E) 09:27:24 437.432
ISS 25 Aug 09:24:52 09:28:06 69° 132° (SE) 09:31:23 145.825
COMPASS 1 25 Aug 09:25:05 09:29:03 41° 99° (E) 09:33:00 437.405
DOVE 4 25 Aug 09:35:21 09:37:38 13° 293° (WNW) 09:39:51 437.250
CUBEBUG 2 25 Aug 09:35:29 09:39:24 38° 99° (E) 09:43:15 437.445
Oscar 11 25 Aug 09:38:12 09:40:47 16° 95° (E) 09:43:22 145.826/435.025
UWE-3 25 Aug 09:39:33 09:43:03 26° 97° (E) 09:46:31 435.000/436.395/437.385
FUNcube-1 25 Aug 09:41:49 09:44:11 15° 95° (E) 09:46:32 145.935
BEESAT 3 25 Aug 09:49:52 09:52:31 18° 109° (ESE) 09:55:10 437.485
ZACube-1 25 Aug 10:00:33 10:04:10 29° 98° (E) 10:07:45 437.345
Cosmos 2504 25 Aug 10:07:29 10:13:43 22° 284° (WNW) 10:19:45 435.465 / 435.565
TIGRISAT 25 Aug 10:13:50 10:17:00 18° 71° (ENE) 10:20:07 435.000
RS-15 25 Aug 10:15:44 10:24:53 23° 44° (NE) 10:33:51 29.354- 29.394
SEEDS 25 Aug 10:16:19 10:19:49 26° 287° (WNW) 10:23:19 437.485
PHONESAT 2.4 25 Aug 10:32:29 10:34:50 21° 218° (SW) 10:37:11 2401.200-2431.200
SO-50 25 Aug 10:36:56 10:41:29 80° 65° (ENE) 10:45:53 436.795
UNISAT 6 25 Aug 10:40:09 10:44:30 40° 75° (ENE) 10:48:49 437.425
PRISM 25 Aug 10:45:40 10:46:55 11° 265° (W) 10:48:10 437.425
AIST 1 25 Aug 10:48:48 10:52:49 38° 279° (W) 10:56:53
AAUSAT CUBESAT 2 25 Aug 10:56:27 10:59:05 16° 289° (WNW) 11:01:43 437.432
BEESAT 2 25 Aug 11:02:04 11:05:58 75° 115° (ESE) 11:09:54 435.950
COMPASS 1 25 Aug 11:03:05 11:04:10 11° 291° (WNW) 11:05:16 437.405
HO-68 25 Aug 11:08:33 11:12:35 16° 298° (WNW) 11:16:37 435.675
HUMSAT D 25 Aug 11:11:25 11:15:13 38° 99° (E) 11:19:02 437.325/437.525
Oscar 11 25 Aug 11:13:08 11:16:53 30° 286° (WNW) 11:20:38 145.826/435.025
CUBEBUG 2 25 Aug 11:14:11 11:15:36 12° 291° (WNW) 11:17:01 437.445
UWE-3 25 Aug 11:16:39 11:19:16 16° 289° (WNW) 11:21:51 435.000/436.395/437.385
FUNcube-1 25 Aug 11:16:52 11:20:24 28° 287° (WNW) 11:23:54 145.935
ANTELSAT 25 Aug 11:16:54 11:21:33 72° 258° (WSW) 11:26:09 437.575/2403.000
DELFI C3 25 Aug 11:22:45 11:26:41 56° 283° (WNW) 11:30:35 145.870
BEESAT 3 25 Aug 11:26:48 11:29:57 23° 302° (WNW) 11:33:09 437.485
CUSAT 1 25 Aug 11:29:20 11:35:59 65° 83° (E) 11:43:45 437.405
ZACube-1 25 Aug 11:37:49 11:40:10 15° 289° (WNW) 11:42:28 437.345
JUGNU 25 Aug 11:38:25 11:42:58 23° 165° (SSE) 11:47:30 437.505
AUBIESAT-1 25 Aug 11:47:24 11:50:02 17° 99° (E) 11:52:32 437.475
QB50P1 25 Aug 11:48:25 11:52:08 29° 73° (ENE) 11:55:51 145.935-145.965
TIGRISAT 25 Aug 11:49:17 11:53:23 31° 262° (W) 11:57:28 435.000
M-CUBED/EXP-1 PRIME 25 Aug 11:50:05 11:53:25 25° 101° (E) 11:56:30 437.505
POPSAT HIP 1 25 Aug 11:57:52 12:01:50 38° 74° (ENE) 12:05:48 437.405
DANDE 25 Aug 11:59:42 12:05:07 44° 82° (E) 12:12:00 436.750
BUGSAT 1 25 Aug 12:02:00 12:04:17 14° 70° (ENE) 12:06:34 437.445
VELOX 1 25 Aug 12:15:40 12:18:11 15° 95° (E) 12:20:41 145.980
GONETS M04 25 Aug 12:17:33 12:25:24 39° 88° (E) 12:33:18
UNISAT 6 25 Aug 12:18:59 12:21:16 13° 265° (W) 12:23:32 437.425
JAS-2 25 Aug 12:22:46 12:27:18 32° 71° (ENE) 12:31:55 435.910
CUBEBUG 1 25 Aug 12:24:03 12:27:39 24° 97° (E) 12:31:13 437.445
RS-15 25 Aug 12:26:38 12:39:05 89° 65° (ENE) 12:51:06 29.354- 29.394
QB50P2 25 Aug 12:27:12 12:31:28 78° 257° (WSW) 12:35:46 145.880/145.840
DUCHIFAT 1 25 Aug 12:28:33 12:32:49 87° 78° (ENE) 12:37:05 145.980
POLYITAN 1 25 Aug 12:29:44 12:34:01 77° 260° (W) 12:38:18 437.675
NANOSAT C BR1 25 Aug 12:41:04 12:45:16 58° 259° (W) 12:49:28 145.865
DX 1 25 Aug 12:41:41 12:44:54 20° 97° (E) 12:48:06 434.975-435.025
ESTCUBE 1 25 Aug 12:42:55 12:47:27 71° 102° (ESE) 12:51:58 437.505/2401.250
HUMSAT D 25 Aug 12:49:15 12:50:26 11° 290° (WNW) 12:51:37 437.325/437.525
PCSat 25 Aug 12:49:35 12:54:59 89° 98° (E) 13:00:25 145.827
AIST 2 25 Aug 12:50:26 12:54:12 37° 112° (ESE) 12:57:59 435.215
SPROUT 25 Aug 12:54:44 12:57:57 21° 96° (E) 13:01:08 437.525
50 SAT 25 Aug 12:59:09 13:02:44 56° 100° (E) 13:06:20 437.505
AISAT 25 Aug 13:02:39 13:07:05 64° 101° (E) 13:11:28 437.250
SRMSAT 25 Aug 13:11:00 13:14:33 16° 162° (SSE) 13:18:05 437.500
CUSAT 1 25 Aug 13:13:11 13:17:39 18° 270° (W) 13:22:32 437.405
Cosmos 2499 25 Aug 13:17:17 13:25:46 81° 94° (E) 13:33:39 435.465 / 435.565
AUBIESAT-1 25 Aug 13:21:20 13:24:24 22° 294° (WNW) 13:27:18 437.475
M-CUBED/EXP-1 PRIME 25 Aug 13:25:08 13:27:40 16° 295° (WNW) 13:30:05 437.505
QB50P1 25 Aug 13:25:17 13:27:51 16° 264° (W) 13:30:26 145.935-145.965
JUGNU 25 Aug 13:26:13 13:31:34 35° 174° (S) 13:36:54 437.505
UKube-1 25 Aug 13:26:27 13:30:43 56° 101° (ESE) 13:34:57 .
Gurwin Techsat 1B 25 Aug 13:28:51 13:29:48 10° 65° (ENE) 13:30:43 435.225
BUGSAT 1 25 Aug 13:35:30 13:39:19 33° 262° (W) 13:43:09 437.445
POPSAT HIP 1 25 Aug 13:36:03 13:37:40 12° 265° (W) 13:39:18 437.405
DANDE 25 Aug 13:43:16 13:47:45 22° 266° (W) 13:53:01 436.750
VELOX 1 25 Aug 13:50:39 13:54:39 34° 287° (WNW) 13:58:39 145.980
CUBEBUG 1 25 Aug 14:00:27 14:03:43 21° 289° (WNW) 14:07:00 437.445
JAS-2 25 Aug 14:08:45 14:12:26 20° 264° (W) 14:16:09 435.910
GONETS M04 25 Aug 14:14:23 14:22:05 34° 282° (WNW) 14:29:51
Oscar 19 25 Aug 14:14:30 14:19:39 86° 74° (ENE) 14:24:49 437.125/150
DX 1 25 Aug 14:17:24 14:20:57 25° 288° (WNW) 14:24:30 434.975-435.025
SPROUT 25 Aug 14:30:25 14:33:44 22° 288° (WNW) 14:37:02 437.525
AIST 2 25 Aug 14:30:40 14:32:45 14° 305° (NW) 14:34:52 435.215
O/OREOS (USA 219) 25 Aug 14:34:46 14:39:06 51° 105° (ESE) 14:43:27 437.305
RS-15 25 Aug 14:42:53 14:49:54 18° 260° (W) 14:56:51 29.354- 29.394
SWISSCUBE 25 Aug 14:51:57 14:55:14 18° 96° (E) 14:58:31 437.505
SRMSAT 25 Aug 14:58:09 15:03:14 30° 170° (S) 15:08:20 437.500
TISAT 1 25 Aug 14:58:23 15:02:29 55° 284° (WNW) 15:06:33 437.305
Gurwin Techsat 1B 25 Aug 15:03:47 15:09:03 70° 257° (WSW) 15:14:22 435.225
AO-7 25 Aug 15:06:39 15:13:04 25° 62° (ENE) 15:19:28 29.400- 29.500
BEESAT 25 Aug 15:08:49 15:12:45 26° 98° (E) 15:16:42 436.000
JUGNU 25 Aug 15:14:51 15:20:14 36° 184° (S) 15:25:34 437.505
Cosmos 2499 25 Aug 15:15:24 15:19:21 14° 287° (WNW) 15:23:14 435.465 / 435.565
ITAMSAT 1 25 Aug 15:23:07 15:28:06 49° 74° (ENE) 15:33:05 435.822/435.867
ITUPSAT 1 25 Aug 15:53:47 15:58:34 88° 103° (ESE) 16:03:20 437.325
AO-85 25 Aug 16:15:35 16:19:39 67° 63° (ENE) 16:23:28 145.980
O/OREOS (USA 219) 25 Aug 16:18:06 16:18:44 10° 298° (WNW) 16:19:23 437.305
SWISSCUBE 25 Aug 16:28:48 16:32:58 31° 288° (WNW) 16:37:09 437.505
STARS 25 Aug 16:43:24 16:44:41 11° 94° (E) 16:45:59 437.465
SRMSAT 25 Aug 16:46:37 16:52:02 38° 180° (S) 16:57:28 437.500
BEESAT 25 Aug 16:46:40 16:50:20 23° 289° (WNW) 16:54:01 436.000
AO-7 25 Aug 16:57:02 17:05:13 58° 256° (WSW) 17:13:26 29.400- 29.500
JUGNU 25 Aug 17:04:08 17:08:50 25° 194° (SSW) 17:13:30 437.505
ITAMSAT 1 25 Aug 17:05:08 17:07:42 14° 265° (W) 17:10:17 435.822/435.867
MOZHAYETS 4 25 Aug 17:21:29 17:26:02 70° 283° (WNW) 17:30:36
KKS-1 25 Aug 17:34:03 17:38:28 65° 284° (WNW) 17:42:51 437.445
ISS 25 Aug 17:34:28 17:37:29 33° 44° (NE) 17:40:28 145.825
HORYU 2 25 Aug 17:47:19 17:51:47 76° 77° (ENE) 17:56:15 437.375
CUTE-I 25 Aug 17:48:22 17:50:16 12° 66° (ENE) 17:52:10 437.470
Cosmos 2491 25 Aug 17:54:56 18:00:54 21° 84° (E) 18:06:53 435.465 / 435.565
NOAA 15 25 Aug 17:55:51 17:59:32 20° 69° (ENE) 18:03:15 137.62
NOAA 18 25 Aug 18:05:36 18:09:15 18° 67° (ENE) 18:12:53 137.9125
STARS 25 Aug 18:17:01 18:21:09 42° 286° (WNW) 18:25:16 437.465
YUBILEINY 25 Aug 18:21:08 18:29:38 53° 81° (E) 18:38:02 435.215
GOMX 1 25 Aug 18:34:30 18:38:53 34° 72° (ENE) 18:43:32 467.674
CUBESAT XI-V 25 Aug 18:34:40 18:39:24 83° 103° (ESE) 18:44:06 437.345
SRMSAT 25 Aug 18:35:42 18:40:51 31° 190° (S) 18:46:00 437.500
BRITE-PL 25 Aug 18:45:45 18:50:17 72° 260° (W) 18:55:14 437.365/2234.400
DOVE 4 25 Aug 18:53:57 18:57:58 24° 71° (ENE) 19:02:06 437.250
JUGNU 25 Aug 18:55:41 18:57:19 11° 201° (SSW) 18:58:57 437.505
Cubesat XI-IV 25 Aug 19:11:40 19:17:01 87° 253° (WSW) 19:22:24 437.490
ISS 25 Aug 19:12:11 19:13:40 13° 235° (SW) 19:15:09 145.825
CUTE-I 25 Aug 19:24:25 19:29:42 63° 258° (WSW) 19:35:00 437.470
LilacSat-2 25 Aug 19:25:34 19:29:16 46° 260° (W) 19:32:59 437.200
NOAA 15 25 Aug 19:34:12 19:38:59 36° 261° (W) 19:43:49 137.62
HO-68 25 Aug 19:40:29 19:46:15 27° 66° (ENE) 19:52:01 435.675
CANX-2 25 Aug 19:43:20 19:45:35 14° 70° (ENE) 19:47:51 2200.000
NOAA 18 25 Aug 19:44:12 19:49:29 45° 259° (W) 19:54:46 137.9125
Cosmos 2491 25 Aug 19:48:23 19:56:55 61° 277° (W) 20:05:33 435.465 / 435.565
CUTE 1.7 + AOD 2 25 Aug 19:49:50 19:52:11 15° 70° (ENE) 19:54:31 437.475
BEESAT 3 25 Aug 19:50:08 19:53:11 21° 57° (ENE) 19:56:13 437.485
CINEMA 3 25 Aug 19:52:09 19:56:19 27° 72° (ENE) 20:00:29 145.822/145.860
Cosmos 2504 25 Aug 20:06:01 20:13:15 88° 262° (W) 20:20:27 435.465 / 435.565
COMPASS 1 25 Aug 20:11:26 20:12:49 11° 70° (ENE) 20:14:11 437.405
GOMX 1 25 Aug 20:13:35 20:16:59 19° 266° (W) 20:20:32 467.674
